Regional Weather Roundup
Issued by NWS Sioux Falls, SD

Home | Current Version | Previous Version | Graphics & Text | Print | Product List | Glossary Off
Versions: 1 2 3 4 5 6 7 8 9 10 11 12 13 14 15 16 17 18 19 20 21 22 23 24 25 26 27 28 29 30 31 32 33 34 35 36 37 38 39 40 41 42 43 44 45 46 47 48 49 50

000
ASUS43 KFSD 270710
RWRFSD

WEATHER ROUNDUP FOR SE SOUTH DAKOTA/SW MINNESOTA/NW IOWA
NATIONAL WEATHER SERVICE SIOUX FALLS SD
100 AM CST FRI FEB 27 2015

NOTE: "FAIR" INDICATES FEW OR NO CLOUDS BELOW 12,000 FEET WITH NO
SIGNIFICANT WEATHER AND OR OBSTRUCTIONS TO VISIBILITY.


SDZ038>040-050-052>070-270800-
SOUTHEAST SOUTH DAKOTA

CITY           SKY/WX    TMP DP  RH WIND       PRES   REMARKS
CHAMBERLAIN    CLEAR     -4  -9  79 CALM      30.51F
HURON          MOCLDY   -17 -21  82 W6        30.54S WCI -32
MADISON        FAIR      -8 -11  84 NW8       30.48S WCI -23
MITCHELL       CLEAR     -4  -9  79 W5        30.56S WCI -15
SIOUX FALLS    CLEAR     -7 -12  79 W6        30.52S WCI -20
WINNER         FAIR       0 -10  63 SW5       30.48F WCI -10
YANKTON        CLEAR     -2  -8  78 SW3       30.58S
$$

MNZ071-072-080-081-089-090-097-098-270800-
SOUTHWEST MINNESOTA

CITY           SKY/WX    TMP DP  RH WIND       PRES   REMARKS
FAIRMONT       PTCLDY    -8 -13  77 NW8       30.48S WCI -23
JACKSON        CLEAR     -8 -15  71 W6        30.49S WCI -21
LUVERNE        CLEAR     -8 -13  77 CALM      30.53R
MARSHALL       CLEAR     -6 -13  71 NW9       30.52S WCI -22
MONTEVIDEO     CLEAR     -8 -11  84 W6        30.54R WCI -21
PIPESTONE      PTCLDY   -11 -17  77 W3        30.47S
REDWOOD FALLS  CLEAR     -8 -13  78 W8        30.53S WCI -24
TRACY          CLEAR     -6 -12  75 W5        30.51R WCI -17
WINDOM         CLEAR    -11 -17  77 CALM      30.49S
WORTHINGTON    CLEAR     21 -20  15 W8        30.50S WCI  12
$$

IAZ001>003-012>014-020>022-031-032-NEZ013-014-SDZ071-270800-
NORTHWEST IOWA

CITY           SKY/WX    TMP DP  RH WIND       PRES   REMARKS
CHEROKEE       CLEAR    -13 -17  81 S3        30.55F
DENISON        CLEAR    -13 -20  70 CALM      30.54S
ESTHERVILLE    CLEAR    -12 -16  82 W9        30.50S WCI -30
LE MARS        FAIR      -6  -9  84 CALM      30.57S
ORANGE CITY    CLEAR     -8 -13  77 CALM      30.52S
SHELDON        CLEAR    -13 -18  77 NW5       30.51S WCI -25
SIOUX CITY     CLEAR     -2  -7  79 NW6       30.58F WCI -14
SPENCER        CLEAR    -12 -19  71 W6        30.52S WCI -26
STORM LAKE     CLEAR    -11 -17  77 NW10      30.52S WCI -30
$$

ABBREVIATIONS USED IN REMARKS
   TC - TEMPERATURE IN CELSIUS
  WCI - WIND CHILL INDEX
   HX - HEAT INDEX
  VSB - VISIBILITY



USA.gov is the U.S. government's official web portal to all federal, state and local government web resources and services.